Challenge Vals & Châteaux

La Corrida de ruelles à Thuin (11.54 km)

samedi 09 juin 2018

Le classement original se trouve sur : http://valsetchateaux.blogspot.be/
CHALLENGE VAL & CHATEAUX
LA CORRIDA DES RUELLES - THUIN
DISTANCE : 11.54 km
samedi 09 juin 2018
 
Place dos NOM Catégorie Pl/cat temps temps/km Vitesse
1 10515 EL MATOUGUI LAHCEN SEH 1 0:40:37 03:31 17.05
2 10391 BARBIER BENJAMIN SEH 2 0:41:23 03:35 16.73
3 864 GUIDO GIANNI SEH 3 0:42:10 03:39 16.42
4 10547 DRAUX CORENTIN SEH 4 0:42:59 03:43 16.11
5 10670 MONJET LUDOVIC SEH 5 0:43:16 03:45 16.01
6 10632 COUGNEAU VINCENT SEH 6 0:43:32 03:46 15.91
7 10493 VAN THUYNE AXEL SEH 7 0:44:22 03:51 15.61
8 10627 CROUQUET CORENTIN SEH 8 0:44:26 03:51 15.59
9 10394 COPPIN STEVE SEH 9 0:44:29 03:51 15.57
10 10542 LESOIL MATHJAS SEH 10 0:44:37 03:52 15.52
11 10437 PASQUE CEDRIC SEH 11 0:45:07 03:55 15.35
12 5392 BOMBAERTS LOÏC SEH 12 0:45:31 03:57 15.21
13 10535 DEMARET CEDRIC V1 1 0:45:42 03:58 15.15
14 10396 LEGRAIN BENOIT SEH 13 0:46:03 03:59 15.04
15 10641 HARDY MICHAEL V1 2 0:46:07 04:00 15.02
16 10402 JONCKHEER FRÉDÉRIC SEH 14 0:46:11 04:00 14.99
17 10674 LEROY FABIAN SEH 15 0:46:27 04:01 14.91
18 10449 NORMAIN OLIVIER V1 3 0:46:30 04:02 14.89
19 10530 BRUYERE PATRICK V1 4 0:46:31 04:02 14.89
20 10638 LUST CHRISTOPHE V2 1 0:47:01 04:04 14.73
21 711 TOMSON THOMAS SEH 16 0:47:03 04:05 14.72
22 10673 PAQUET OLIVIER V1 5 0:47:06 04:05 14.70
23 10656 COULON GREGORY V1 6 0:47:25 04:06 14.60
24 10480 HERIEMAN MATHIEU SEH 17 0:47:44 04:08 14.51
25 10505 MALEVÉ BERENGERE A1 1 0:47:54 04:09 14.46
26 10490 BOURGEOIS SEBASTIEN V1 7 0:47:54 04:09 14.46
27 3 RIVEZ PIERRE V3 1 0:47:54 04:09 14.46
28 993 HARDENNE ANDRE V2 2 0:48:00 04:10 14.43
29 10440 CARION GAUTHIER V1 8 0:48:17 04:11 14.34
30 10676 FITDEVOIE PIERRE V2 3 0:48:39 04:13 14.23
31 998 AHMAD MGHARI SEH 18 0:48:56 04:14 14.15
32 10404 PÉRISSE FRANÇOIS V2 4 0:48:59 04:15 14.14
33 67 BERGER THIERRY V2 5 0:49:11 04:16 14.08
34 10506 LORIAUX EMILIE SEF 1 0:49:18 04:16 14.05
35 234 DASSELEER CHRISTIAN V1 9 0:49:21 04:17 14.03
36 10630 BUX FABIO SEH 19 0:49:28 04:17 14.00
37 10702 GOZDZICKI ALLAN SEH 20 0:49:38 04:18 13.95
38 10701 PAHOS ANDREAS SEH 21 0:49:38 04:18 13.95
39 10541 NINITE SEBASTIEN V1 10 0:49:49 04:19 13.90
40 10508 HIUYOUX JEAN-PIERRE V1 11 0:50:00 04:20 13.85
41 426 SCOLAS GAETAN SEH 22 0:50:01 04:20 13.85
42 702 HANNARD KEVIN SEH 23 0:50:05 04:20 13.83
43 10688 LUST ERIC V2 6 0:50:32 04:23 13.70
44 10486 X X XXX   0:50:42 04:24 13.66
45 10548 MONVOISIN JONATHAN SEH 24 0:50:53 04:25 13.61
46 10466 CHOURAT CHRISTOPHE V1 12 0:50:59 04:25 13.58
47 10478 DUBRAY QUENTIN SEH 25 0:51:07 04:26 13.55
48 238 MARLÉ LAURENT V1 13 0:51:09 04:26 13.54
49 10539 BIERWISCH ÉDOUARD SCH 1 0:51:15 04:26 13.51
50 10669 DELOBBE JONATHAN SEH 26 0:51:18 04:27 13.50
51 10550 LUST DAMIEN V1 14 0:51:22 04:27 13.48
52 719 RISO FRANCISCO SEH 27 0:51:32 04:28 13.44
53 825 BARBIEUX PATRICE V3 2 0:51:41 04:29 13.40
54 177 FILÉE ERIC V2 7 0:51:45 04:29 13.38
55 722 DEPUTTER FRANCIS V2 8 0:51:46 04:29 13.38
56 116 RIGUELLE FRANÇOIS SEH 28 0:51:51 04:30 13.36
57 10660 MESTRE FEREDERIC V1 15 0:51:55 04:30 13.34
58 875 MICHEL JEAN-BENOIT SEH 29 0:52:03 04:31 13.30
59 10543 LACOMBLEZ JEROME V1 16 0:52:17 04:32 13.25
60 10636 CRAPEZ LORY SEH 30 0:52:18 04:32 13.24
61 10536 EL KAJJAL MOHAMED V2 9 0:52:19 04:32 13.24
62 10484 ROMAIN JEAN-FRANÇOIS V1 17 0:52:26 04:33 13.21
63 10156 VANDEMERGEL DORIAN SEH 31 0:52:27 04:33 13.20
64 10681 CATOIR BERTRAND V1 18 0:52:36 04:33 13.17
65 412 DUYCK XAVIER V2 10 0:52:37 04:34 13.16
66 10469 MARZETTA BRIAN V1 19 0:52:45 04:34 13.13
67 10524 BADY FRANK SEH 32 0:52:52 04:35 13.10
68 10457 KAPUCZINSKI ABELINE SEF 2 0:53:00 04:36 13.07
69 10387 DARDENNE QUENTIN SEH 33 0:53:02 04:36 13.06
70 73 VANNOORENBERGHE JOEL V1 20 0:53:08 04:36 13.03
71 10472 MAYEUX FRANCK V1 21 0:53:14 04:37 13.01
72 5349 BIERLAIRE NICOLAS V1 22 0:53:17 04:37 13.00
73 733 JACQUY BENOIT SEH 34 0:53:20 04:37 12.98
74 10487 BLANCHART YVES V2 11 0:53:22 04:37 12.98
75 768 HERQUIN CLAUDY V1 23 0:53:28 04:38 12.95
76 10471 MARECHAL JEAN-LUC V2 12 0:53:32 04:38 12.94
77 285 GIULIANI FERNANDO V3 3 0:53:36 04:39 12.92
78 147 ADAM GUILLAUME SEH 35 0:53:37 04:39 12.92
79 10104 FERNANDEZ-VERA ANTONIO V2 13 0:53:37 04:39 12.92
80 780 MAMERE JACQUES V3 4 0:53:38 04:39 12.91
81 10381 DECAMPS ERIC V2 14 0:53:40 04:39 12.90
82 10463 COGNEAUX ERIC V1 24 0:53:43 04:39 12.89
83 121 SCHNEIDER THOMAS SEH 36 0:53:44 04:39 12.89
84 10696 DECOUX OLIVIER V2 15 0:53:45 04:39 12.88
85 10703 PEPINSTER NICOLAS SEH 37 0:53:59 04:41 12.83
86 10672 GOUVERNEUR PHILIPPE V1 25 0:54:01 04:41 12.82
87 738 MAES ROMAIN SEH 38 0:54:01 04:41 12.82
88 10623 DEWILLE MICHEL SEH 39 0:54:10 04:42 12.78
89 10531 ANGOT JEAN-PIERRE V2 16 0:54:11 04:42 12.78
90 10461 CLEMENT CHRISTIAN V3 5 0:54:17 04:42 12.76
91 70 CADO PAUL V2 17 0:54:21 04:43 12.74
92 703 KNOTT FABIENNE A2 1 0:54:22 04:43 12.74
93 10538 MARTINEZ RODRIGUE SEH 40 0:54:22 04:43 12.74
94 10476 HUBERT THIBAUT SEH 41 0:54:31 04:43 12.70
95 10624 SOBRY CLAUDE V2 18 0:54:39 04:44 12.67
96 10698 CHENUT SEBASTIEN V1 26 0:54:39 04:44 12.67
97 941 D'ANGELO AMERINO V2 19 0:54:43 04:44 12.66
98 10488 HERREMAN PHILIPPE V2 20 0:54:44 04:45 12.65
99 10421 AGOSTI LORENZO SEH 42 0:54:48 04:45 12.64
100 10468 AUDIN JULIEN SEH 43 0:54:48 04:45 12.64
101 10444 JORIS FRANCK V2 21 0:54:48 04:45 12.64
102 855 LARDENOEY FRÉDÉRIC SEH 44 0:54:55 04:45 12.61
103 985 TODARO RENATO V2 22 0:54:57 04:46 12.60
104 10519 VANESCOTE INGRID A2 2 0:55:03 04:46 12.58
105 417 STASSIN FRANCIS V3 6 0:55:08 04:47 12.56
106 103 SARTORI SERGIO V2 23 0:55:09 04:47 12.56
107 10507 ES CHRISTIAN V3 7 0:55:19 04:48 12.52
108 10521 DUCATILLON MAURICE SEH 45 0:55:20 04:48 12.52
109 10662 EL HARCHI HASSEN V1 27 0:55:23 04:48 12.50
110 10527 POLOME GUY V2 24 0:55:26 04:48 12.49
111 464 FERY ETIENNE V2 25 0:55:29 04:48 12.48
112 954 FLORE CARLO V2 26 0:55:34 04:49 12.46
113 10403 CHAUSSIER OCÉANE SEF 3 0:55:39 04:49 12.44
114 5980 CORNET DANIEL V1 28 0:55:40 04:49 12.44
115 10409 MALBRECQ BERNARD V3 8 0:55:40 04:49 12.44
116 10479 ADANT BERNARD V2 27 0:55:41 04:49 12.44
117 10645 HANOTIAUX MICHEL V2 28 0:55:47 04:50 12.41
118 10400 THIBAUT PIERRE SEH 46 0:55:52 04:50 12.40
119 10467 LALOY PHILIPPE SEH 47 0:55:55 04:51 12.38
120 10410 BOUCQ FREDERIC V1 29 0:55:56 04:51 12.38
121 10485 MONCOUSIN FABIEN SEH 48 0:56:08 04:52 12.34
122 10411 THEATE FRANCOISE A3 1 0:56:10 04:52 12.33
123 10462 DEMANET PATRICK V2 29 0:56:11 04:52 12.33
124 10651 DRAUX STEPHANE V2 30 0:56:14 04:52 12.32
125 5994 CONIGLIO MARIA-CONCETTA A2 3 0:56:18 04:53 12.30
126 897 VAN UYTVINCK PIERRE V1 30 0:56:25 04:53 12.27
127 318 MARTINAGE LIONEL V2 31 0:56:27 04:53 12.27
128 10683 GUYOT FREDERIC V1 31 0:56:32 04:54 12.25
129 10452 BELLANTE SALVATORE V1 32 0:56:35 04:54 12.24
130 10529 ROLAND HUGUES V2 32 0:56:37 04:54 12.23
131 10540 BIERWISCH JEAN-MICHEL V1 33 0:56:40 04:55 12.22
132 10456 HENDRICKX PY V1 34 0:56:42 04:55 12.21
133 10690 PIERARD THOMAS SEH 49 0:56:45 04:55 12.20
134 10661 SERAFIN LORENZO SEH 50 0:56:50 04:55 12.19
135 10679 WIBOU TRISTAN SEH 51 0:57:06 04:57 12.13
136 10446 THIRION FRANCK V1 35 0:57:06 04:57 12.13
137 742 TIREZ ESTELLE A3 2 0:57:16 04:58 12.09
138 10455 HENRIET ALEXANDRE SEH 52 0:57:17 04:58 12.09
139 10430 YAHIATENE KARIM V1 36 0:57:22 04:58 12.07
140 10420 GERARD FABIEN V1 37 0:57:23 04:58 12.07
141 10378 FONTAINE FABIAN V1 38 0:57:25 04:58 12.06
142 10489 PAGNIER TIPHANIE SEF 4 0:57:31 04:59 12.04
143 154 HENRIOULLE JÉRÔME SEH 53 0:57:33 04:59 12.03
144 10652 D'ANGELO GABRIELE V1 39 0:57:33 04:59 12.03
145 712 PAPART JEAN-MARC V1 40 0:57:35 04:59 12.03
146 10481 BASTIEN FREDERIC V1 41 0:57:39 05:00 12.01
147 10520 THIJS ANDY SEH 54 0:57:40 05:00 12.01
148 10474 GIET JEAN MICHEL SEH 55 0:57:48 05:00 11.98
149 10663 LEJEUNE ARNAUD V1 42 0:57:48 05:00 11.98
150 10443 CASTIGLIA PHILIPPE V1 43 0:57:54 05:01 11.96
151 10655 MICHAUX STEPHANE V1 44 0:58:08 05:02 11.91
152 10657 MATERNE JEAN-PHILIPPE V1 45 0:58:10 05:02 11.91
153 10648 CORBUGY BERNADETTE A3 3 0:58:12 05:03 11.90
154 2253 DE VREESE MARC V3 9 0:58:15 05:03 11.89
155 10635 BARON LUDOVIC V1 46 0:58:16 05:03 11.89
156 251 DEMOULIN ALAIN V2 33 0:58:18 05:03 11.88
157 10358 PERRONE JEAN-LOUIS SEH 56 0:58:20 05:03 11.87
158 10482 JOURAN ALBIN SEH 57 0:58:25 05:04 11.85
159 10545 QUERTINMONT MICKAEL SEH 58 0:58:45 05:05 11.79
160 10667 SASSI STEPHAN SEH 59 0:58:56 05:06 11.75
161 5389 BRAUNE VINCENT V1 47 0:59:09 05:07 11.71
162 10091 FERAUCHE JEAN-MARIE V3 10 0:59:13 05:08 11.69
163 2 BOUVIER BENOIT V1 48 0:59:15 05:08 11.69
164 451 GEEROMS ALBERT V2 34 0:59:18 05:08 11.68
165 10470 MARZETTA ALEXIS JH 1 0:59:24 05:09 11.66
166 10644 MÉLON FRÉDÉRIC SEH 60 0:59:33 05:10 11.63
167 673 VRAY VALERIE A1 2 0:59:38 05:10 11.61
168 10678 INGRASCI JÉRÔME SEH 61 0:59:45 05:11 11.59
169 10691 PAINCHART GARY XXX   0:59:57 05:12 11.55
170 10643 HAUBE PIERRE-ALAIN SEH 62 0:59:59 05:12 11.55
171 10450 PATERNOSTRE JEAN-JACQUES V2 35 1:00:03 05:12 11.53
172 700 BAUDUIN VINCENT V2 36 1:00:11 05:13 11.51
173 10368 HERPAIN CÉDDRIC V1 49 1:00:14 05:13 11.50
174 10671 ANSIAU MAGALI A1 3 1:00:15 05:13 11.49
175 10684 GIAMBATTISTA MAXIME V1 50 1:00:23 05:14 11.47
176 5382 CHIUSANO MARIA TERESA A1 4 1:00:25 05:14 11.46
177 10492 VANDERMEULEN DENIS V1 51 1:00:30 05:15 11.45
178 10622 LEFEBVRE PASCAL SEH 63 1:00:37 05:15 11.42
179 10386 PRAIL CHRISTIAN V3 11 1:00:37 05:15 11.42
180 796 SCIGLIUZZO DANIEL V2 37 1:00:39 05:15 11.42
181 7792 DELFOSSE CAMILLE SEF 5 1:00:41 05:15 11.41
182 10405 FILIPPI XAVIER V1 52 1:00:46 05:16 11.40
183 10650 JUSNIAUX PIERRE-YVES V1 53 1:00:51 05:16 11.38
184 10685 COPPEE BRUNO SEH 64 1:00:56 05:17 11.37
185 10401 PRONNIER DOMINIQUE V2 38 1:00:58 05:17 11.36
186 10533 DOBILLE SEBASTIEN SEH 65 1:01:04 05:17 11.34
187 720 LEPAGE CONNY SEF 6 1:01:11 05:18 11.32
188 122 BRUYÈRE SERGE V2 39 1:01:15 05:18 11.31
189 10504 LETE PASCAL V2 40 1:01:20 05:19 11.29
190 349 PONDEVILLE NATHALIE A2 4 1:01:26 05:19 11.27
191 297 GALAIS JEAN-MICHEL V2 41 1:01:29 05:20 11.26
192 10700 LOMBART JEAN SEH 66 1:01:38 05:20 11.24
193 828 BERTHOUX FABIAN V1 54 1:01:40 05:21 11.23
194 10418 CAPELLE JEREMY SEH 67 1:01:43 05:21 11.22
195 988 LETA FILIPPO V2 42 1:01:46 05:21 11.21
196 10356 PLOYAERT ERIC V3 12 1:01:46 05:21 11.21
197 292 MARINELLI GAETANO V2 43 1:01:47 05:21 11.21
198 286 VAN YCK TIMOTHY SEH 68 1:01:57 05:22 11.18
199 10658 DI GIUSEPPE ANGELO V1 55 1:01:59 05:22 11.17
200 10370 NICAISE PATRICK V3 13 1:02:07 05:23 11.15
201 10517 LAMERANT REMY SEH 69 1:02:08 05:23 11.15
202 10549 LICOT EROS SEH 70 1:02:13 05:23 11.13
203 10686 ABIDAT DJAMAL V3 14 1:02:19 05:24 11.11
204 10675 LOMBART PHILIPPE V3 15 1:02:24 05:24 11.10
205 10399 OULD GILBERT V3 16 1:02:31 05:25 11.08
206 8 HENIN VIRGINIE SEF 7 1:02:34 05:25 11.07
207 10377 CEUPPENS PATRICK V3 17 1:02:42 05:26 11.04
208 10465 DEMOTTE SYLVIE A2 5 1:02:43 05:26 11.04
209 10428 BOSMAN JOELLE A1 5 1:02:44 05:26 11.04
210 10694 PAINCHART CARL SEH 71 1:02:49 05:27 11.02
211 10649 GARCIA JOSE LUIS V2 44 1:02:49 05:27 11.02
212 10453 ARNOULD FRANCOIS SEH 72 1:02:50 05:27 11.02
213 10665 INTRVIGNE ADRIEN SEH 73 1:02:56 05:27 11.00
214 135 BOURMORCK CARINE A2 6 1:02:58 05:27 11.00
215 10503 PIERARD MARIE-NOËLLE A3 4 1:02:59 05:27 11.00
216 10502 BIASOTTO PHILIPPE V2 45 1:03:01 05:28 10.99
217 10464 DESMET DAVID V1 56 1:03:02 05:28 10.99
218 10528 COULON CHRISTIAN V3 18 1:03:05 05:28 10.98
219 10363 MICHEL ARNAUD SEH 74 1:03:11 05:28 10.96
220 10687 MONCOUSIN JULIE SEF 8 1:03:14 05:29 10.95
221 10434 COUTO MANUEL V3 19 1:03:26 05:30 10.92
222 10375 DENIS CHRISTIAN V3 20 1:03:36 05:31 10.89
223 10689 BERTLEFF LAURA SEF 9 1:03:36 05:31 10.89
224 60 MESTACH CRISTINE A3 5 1:03:39 05:31 10.88
225 10500 DELAFONTAINE THIERRY V2 46 1:03:47 05:32 10.86
226 10436 MOUREAU SERGE V2 47 1:03:50 05:32 10.85
227 10361 MICHOT JULIEN SEH 75 1:03:59 05:33 10.82
228 150 ROUVROY DANIEL V3 21 1:04:00 05:33 10.82
229 10397 URBAIN GINETTE A4 1 1:04:11 05:34 10.79
230 10362 MICHEL DIMITRI V1 57 1:04:19 05:34 10.77
231 10626 BENUZZI DAMIEN SEH 76 1:04:20 05:34 10.76
232 10677 BOMBEKE JULIEN SEH 77 1:04:23 05:35 10.76
233 10625 SPITAELS LAURENT SEH 78 1:04:26 05:35 10.75
234 454 BARIGAND JACQUELINE A3 6 1:04:32 05:35 10.73
235 10509 LIEGEOIS PASCAL V3 22 1:04:42 05:36 10.70
236 10412 POTY FRANCIS V2 48 1:04:43 05:36 10.70
237 10414 DUCARME PASCAL V1 58 1:04:43 05:36 10.70
238 10473 PILLOD JULIEN SEH 79 1:04:44 05:37 10.70
239 10393 COPPIN CEDRIC SEH 80 1:04:45 05:37 10.70
240 201 LAGNEAUX CÉLINE A1 6 1:04:49 05:37 10.68
241 200 KINIF PHILIPPE V2 49 1:04:49 05:37 10.68
242 798 GANDIBLEUX KARINE A2 7 1:05:07 05:39 10.63
243 10653 MARLIER PIERRE V1 59 1:05:09 05:39 10.63
244 10537 CANON OLIVIER V1 60 1:05:17 05:39 10.61
245 10416 VANDENBOSSCHE CLAUDE V3 23 1:05:19 05:40 10.60
246 10432 BOULANGER FABRICE V1 61 1:05:21 05:40 10.60
247 10499 OUTTIER NATHALIE A2 8 1:05:22 05:40 10.59
248 10372 LELEUX GERARD V3 24 1:05:31 05:41 10.57
249 10682 TAVEL DIDIER V2 50 1:05:34 05:41 10.56
250 10429 YAHIATENE MARJORIE A1 7 1:05:43 05:42 10.54
251 10526 BRANCATO ERIC V2 51 1:05:46 05:42 10.53
252 10408 DE HOUST MARIANNE A3 7 1:05:55 05:43 10.51
253 10518 DEMEULENAERE SOPHIE A2 9 1:05:58 05:43 10.50
254 10514 STILITE FRANK V2 52 1:06:01 05:43 10.49
255 10516 DEREUME PASCAL V2 53 1:06:01 05:43 10.49
256 10364 LEGRAND EMELINE SEF 10 1:06:09 05:44 10.47
257 10491 GOSSIAUX CHARLES V3 25 1:06:11 05:44 10.46
258 10439 AMANT BERTRAND SEH 81 1:06:27 05:45 10.42
259 49 DECOUX PATRICK V2 54 1:06:31 05:46 10.41
260 10544 GILSON SEBASTIEN SEH 82 1:06:34 05:46 10.40
261 93 DELMOTTE YVES V3 26 1:06:40 05:47 10.39
262 190 FONTAINE JUSTINE SEF 11 1:06:50 05:47 10.36
263 10447 EVRARD HUGO SEH 83 1:06:57 05:48 10.34
264 881 PIROTTE CHRISTOPHER SEH 84 1:06:58 05:48 10.34
265 10424 LEROI PHILIPPE V2 55 1:07:02 05:48 10.33
266 5388 CHARLES-PIRLOT NICOLAS V1 62 1:07:07 05:49 10.32
267 10513 BERTIEAUX PASCAL V2 56 1:07:08 05:49 10.32
268 10352 SCHALENBOURG OLIVIER V1 63 1:07:08 05:49 10.32
269 727 GARRIC ARNAUD SEH 85 1:07:13 05:49 10.30
270 10357 PLAPIED DANIELLE A3 8 1:07:18 05:50 10.29
271 10422 LECLERCQ FRANCKY SEH 86 1:07:19 05:50 10.29
272 10427 MOREL SABRINA A1 8 1:07:19 05:50 10.29
273 10426 MOREL NICOLAS V1 64 1:07:19 05:50 10.29
274 10495 ALMONTE FRANCO V2 57 1:07:30 05:51 10.26
275 10640 BARON JOEL V3 27 1:07:30 05:51 10.26
276 10423 PICARO ROBERTO V2 58 1:07:47 05:52 10.22
277 10637 EL GOUDDI MATHIEU SEH 87 1:07:47 05:52 10.22
278 5972 COUTELLIER MARIE-LOUISE A4 2 1:07:50 05:53 10.21
279 10692 PAINCHART ALAIN V1 65 1:07:58 05:53 10.19
280 10496 QUERTINMONT FRANK V2 59 1:07:58 05:53 10.19
281 10494 DEWANDEL LAURENT V2 60 1:08:00 05:53 10.18
282 10646 DELITTE BENEDICTE A2 10 1:08:01 05:54 10.18
283 10512 MOISEZ CAROLE A2 11 1:08:06 05:54 10.17
284 10621 LAMBRET CHRISTELLE A1 9 1:08:08 05:54 10.16
285 10551 SPAGNUOLO ANGELO V2 61 1:08:13 05:55 10.15
286 10501 TAEVERNIER NATHALIE A2 12 1:08:15 05:55 10.15
287 7489 DE WULF LUC V3 28 1:08:16 05:55 10.14
288 10374 GOFFART HENRI V2 62 1:08:25 05:56 10.12
289 10510 LIEGEOIS STÉPHANE V3 29 1:08:28 05:56 10.11
290 10498 GAILLY GUILLAUME SEH 88 1:08:31 05:56 10.11
291 10497 COSYNS JEAN-FRANÇOIS SEH 89 1:08:34 05:56 10.10
292 10525 WANTIEZ CHRISTELLE A1 10 1:08:44 05:57 10.08
293 10382 CATTEAU XAVIER SEH 90 1:08:54 05:58 10.05
294 10417 SURIANO GIORGIO V2 63 1:09:06 05:59 10.02
295 10628 LAGNEAUX DELPHINE A1 11 1:09:09 05:59 10.01
296 10693 PAINCHART ISABELLE A2 13 1:09:11 06:00 10.01
297 725 LORIAUX CHANTAL A2 14 1:09:11 06:00 10.01
298 865 HERALY CHRISTINE A2 15 1:09:21 06:01 9.99
299 10448 NORMAIN JULIE SEF 12 1:09:26 06:01 9.97
300 10155 VANTOMME RÉMY SEH 91 1:09:30 06:01 9.96
301 10522 LECLERCQ RENAUD V2 64 1:09:45 06:03 9.93
302 709 ROSY MARTINE A2 16 1:09:49 06:03 9.92
303 10552 LICOT THOMAS SEH 92 1:09:53 06:03 9.91
304 420 VAN LAETHEM ELOI V3 30 1:09:53 06:03 9.91
305 724 SNAUWAERT DENIS V1 66 1:09:55 06:03 9.90
306 10389 FAUVILLE FANNY A1 12 1:09:55 06:03 9.90
307 10647 GRISAFI ROBERTO SEH 93 1:09:56 06:04 9.90
308 10085 GEVENOIS MARIE-ROSE A4 3 1:10:01 06:04 9.89
309 10441 JOLY MICHEL V2 65 1:10:02 06:04 9.89
310 10395 MESTER MARCEL V4 1 1:10:07 06:04 9.88
311 128 LEDUC STÉPHANE V1 67 1:10:11 06:05 9.87
312 10460 THIEBAUX MAXIME SCH 2 1:10:16 06:05 9.86
313 10433 RENARD JACQUELINE A3 9 1:10:19 06:06 9.85
314 806 CHALTIN ALICIA SEF 13 1:10:25 06:06 9.83
315 10458 ANGOT MAXENCE SEH 94 1:10:27 06:06 9.83
316 996 SBRO SALVATOR V3 31 1:10:38 06:07 9.80
317 10654 LOUIS CAROLE A2 17 1:10:46 06:08 9.79
318 5 DUSSART JEAN-PIERRE V3 32 1:10:50 06:08 9.78
319 345 POBLE JACQUES V3 33 1:10:54 06:09 9.77
320 10369 MASSART VICTOR V3 34 1:11:01 06:09 9.75
321 10454 ROUART JEAN LOUIS V2 66 1:11:13 06:10 9.72
322 10445 JORIS PATRIZIA XXX   1:11:39 06:12 9.67
323 10415 DELABY MARIE CLAIRE A4 4 1:11:40 06:13 9.66
324 10546 CHABOT CHRISTOPHE V2 67 1:11:43 06:13 9.66
325 10371 PESTIAUX YVES V3 35 1:11:51 06:14 9.64
326 10477 DEBRIEVRE BENOIT SEH 95 1:12:00 06:14 9.62
327 10668 VITALI THIERRY V1 68 1:12:07 06:15 9.60
328 10631 BASTIEN LIONEL SEH 96 1:12:22 06:16 9.57
329 10385 VAN DAMME DANIEL V4 2 1:12:33 06:17 9.55
330 10666 MAES ISABELLE A1 13 1:12:33 06:17 9.55
331 740 BAUD'HUIN CÉCILE A2 18 1:12:55 06:19 9.50
332 10680 LEBRUN CATHERINE A1 14 1:13:06 06:20 9.47
333 10442 POULEUR JEAN PAUL V2 68 1:13:10 06:20 9.46
334 5964 CULIN ALBIN SEH 97 1:13:11 06:20 9.46
335 176 PAINBLANC DIDIER V3 36 1:13:12 06:21 9.46
336 10383 VADALA GIUSEPPE V2 69 1:13:20 06:21 9.44
337 10697 GEUSE CAMILLE SEF 14 1:13:22 06:21 9.44
338 10695 VAN DRIESSCHE CAROLINE A1 15 1:13:28 06:22 9.43
339 10398 GRANDFILS ERIC V3 37 1:13:28 06:22 9.43
340 10438 GRAWET NICOLAS SEH 98 1:14:07 06:25 9.34
341 2248 COUVREUR LUC V3 38 1:14:31 06:27 9.29
342 739 CHARLIER ISALEEN SEF 15 1:14:37 06:28 9.28
343 10475 GILLE ALIZEE SEF 16 1:14:39 06:28 9.28
344 87 CULOT PATRICK V2 70 1:14:42 06:28 9.27
345 10664 ROBINSKI QUENTIN SEH 99 1:14:54 06:29 9.25
346 10151 VLAMINCK ANDRÉ V3 39 1:15:10 06:31 9.21
347 96 BASSOULET JEAN CLAUDE V4 3 1:15:10 06:31 9.21
348 708 FOUZ - LOPEZ FRANCISCO V3 40 1:15:14 06:31 9.20
349 10390 LEROY CATHERINE SEF 17 1:15:40 06:33 9.15
350 668 LEFEVRE ROBERT V3 41 1:15:50 06:34 9.13
351 10376 THIRION FANFAN A3 10 1:16:17 06:37 9.08
352 10633 CULOT VIOLAINE SEF 18 1:16:35 06:38 9.04
353 721 NOWAK ANNE-SOPHIE A1 16 1:16:42 06:39 9.03
354 10406 JONCKHEER NICOLE A3 11 1:16:43 06:39 9.03
355 10407 BADY POL V3 42 1:16:43 06:39 9.03
356 10419 COCCIASECCA ALESSANDRO V2 71 1:17:04 06:41 8.99
357 10413 MARIANO SALVATORE V3 43 1:17:05 06:41 8.98
358 10353 ROMANO ANTONIO V3 44 1:17:21 06:42 8.95
359 10354 ROMANO AGOSTINO V2 72 1:17:25 06:42 8.95
360 10532 POTTIER PASCAL V2 73 1:17:39 06:44 8.92
361 726 SANCARLO MARIO V2 74 1:17:44 06:44 8.91
362 10451 ALAERS SARAH A1 17 1:18:10 06:46 8.86
363 110 VAN IMMERSEEL SANDRINE A1 18 1:18:12 06:47 8.86
364 10659 DE LUYCK FEMKE SEF 19 1:18:22 06:47 8.84
365 290 TAVIER PASCAL V2 75 1:18:40 06:49 8.80
366 824 ANIQUE FABIENNE A3 12 1:18:41 06:49 8.80
367 10511 GUIRCHE ALBERT V3 45 1:18:57 06:50 8.77
368 840 DAMME CHRISTINE A1 19 1:18:58 06:51 8.77
369 10435 CARLA CERINI A2 19 1:19:18 06:52 8.73
370 10634 BONGA BONGA GAILLY MAERA SEF 20 1:19:18 06:52 8.73
371 10483 PIRET ISABELLE A1 20 1:20:02 06:56 8.65
372 10431 DELSTANCHE NATHALIE A1 21 1:20:31 06:59 8.60
373 149 WILLEM CÉCILE A1 22 1:21:06 07:02 8.54
374 723 COLLIGNON STÉPHANIE A1 23 1:21:14 07:02 8.53
375 10629 ELOY JEAN PIERRE V3 46 1:21:21 07:03 8.51
376 10459 MENU ROBERT V2 76 1:22:06 07:07 8.44
377 10388 VAN OORBEEK SÉBASTIEN SEH 100 1:22:33 07:09 8.39
378 10380 ABBENBROEK ANNIQUE A1 24 1:22:33 07:09 8.39
379 997 NOEL CHRISTIANE A4 5 1:23:38 07:15 8.28
380 10373 LEONARD PATRICIA A3 13 1:23:40 07:15 8.28
381 10554 CUBI SANDRINE A1 25 1:24:33 07:20 8.19
382 10553 CUBI CORINE A2 20 1:24:35 07:20 8.19
383 10555 BAYOT MARIE-PIERRE A1 26 1:24:59 07:22 8.15
384 10351 STIENON MARTINE A3 14 1:25:03 07:22 8.14
385 10142 WILLEM MARIE A1 27 1:25:03 07:22 8.14
386 137 ALEXANDRE PASCAL V2 77 1:27:57 07:37 7.87
387 734 MAREZ MATHIEU SEH 101 1:29:13 07:44 7.76
388 10379 DAGNELIE GUY V4 4 1:33:38 08:07 7.40
389 10642 DURENNE ERIC V2 78 1:34:35 08:12 7.32
390 95 HENIN SOPHIE A1 28 1:38:40 08:33 7.02